National Weather Service Hourly Weather Roundup
NOAA NWS Hourly Roundups by Site
NOAA NWS Hourly Roundups by Site
Regional Weather Roundup for Sacramento, CA

To Select Another Site Choose from List

Select Site:  

000
ASUS46 KSTO 181915
RWRCA

NORTHERN AND CENTRAL CA REGIONAL WEATHER ROUNDUP
NATIONAL WEATHER SERVICE SACRAMENTO CA
1200 PM PDT THU AUG 18 2022

NOTE: FAIR INDICATES FEW OR NO CLOUDS BELOW 12,000 FEET WITH NO
SIGNIFICANT WEATHER AND/OR OBSTRUCTIONS TO VISIBILITY.

CAZ001-003-182000-
NORTHWEST AREA

CITY           SKY/WX    TMP DP  RH WIND       PRES   REMARKS
CRESCENT CITY  PTSUNNY   62  56  80 S6        29.99S
UKIAH          SUNNY     93  43  17 NE3       29.91F
$$

CAZ006-505>513-182000-
BAY AREA

CITY           SKY/WX    TMP DP  RH WIND       PRES   REMARKS
SANTA ROSA     SUNNY     76  54  46 S5        29.94F
SAN RAFAEL     N/A       72  MM  MM MISG
NAPA           SUNNY     72  57  59 S9        29.94F
CONCORD        SUNNY     82  55  39 NW10      29.92F
OAKLAND CITY   N/A       66  MM  MM MISG
OAKLAND        SUNNY     68  57  68 W6        29.97F
SAN FRAN CITY  N/A       64  MM  69 MISG
SAN FRAN ARPT  MOSUNNY   69  57  65 N7        29.96S
LIVERMORE      SUNNY     87  53  31 NW8       29.92F
HAYWARD        SUNNY     73  59  61 W7        29.96F
REDWOOD CITY   N/A       71  MM  70 MISG
MOFFETT ARPT   SUNNY     72  59  64 N7        29.95F
SAN JOSE ARPT  SUNNY     79  57  46 NW5       29.94F
$$
CAZ034-037-514>518-182000-
CENTRAL COAST

CITY           SKY/WX    TMP DP  RH WIND       PRES   REMARKS
WATSONVILLE    SUNNY     71  57  61 S6        29.97F
SALINAS        SUNNY     73  57  57 NW8       29.96F
MONTEREY       SUNNY     68  53  58 N7        29.98F
SAN LUIS OBISP SUNNY     73  55  53 NW8       29.95F
SANTA MARIA    SUNNY     68  56  65 NW9       29.97S
HALF MOON BAY  FAIR      59  57  94 W8        29.99S
$$
CAZ015-016-182000-
NORTHERN SACRAMENTO VALLEY

CITY           SKY/WX    TMP DP  RH WIND       PRES   REMARKS
REDDING        MOSUNNY  100  52  19 N13G18    29.87F HX  97
RED BLUFF      MOSUNNY  101  50  18 VRB6      29.87F HX  98
OROVILLE       SUNNY     94  60  32 SW5       29.89F HX  94
$$
CAZ016>018-182000-
SOUTHERN SACRAMENTO VALLEY

CITY           SKY/WX    TMP DP  RH WIND       PRES   REMARKS
AUBURN         SUNNY     93  54  26 SW7       29.97S HX  91
BEALE AFB      SUNNY     92  57  30 SW6       29.87S HX  91
LINCOLN        FAIR      90  52  27 SW6       29.88F
MARYSVILLE     SUNNY     92  55  28 VRB3      29.88F HX  90
SAC INTL ARPT  SUNNY     91  54  28 VRB6      29.88F
MATHER AIRPORT NOT AVBL
DOWNTOWN SAC   N/A       90  MM  MM MISG
SAC EXEC ARPT  SUNNY     88  56  33 SW5       29.89F
VACAVILLE      SUNNY     92  56  29 CALM      29.90S HX  90
TRAVIS AFB     SUNNY     84  54  35 SW17      29.88F
$$
CAZ019>021-182000-
SAN JOAQUIN VALLEY

CITY           SKY/WX    TMP DP  RH WIND       PRES   REMARKS
STOCKTON       SUNNY     93  52  24 W10       29.89F HX  90
MODESTO        SUNNY     90  51  26 NW7       29.88F
MERCED         SUNNY     94  49  21 NW12      29.88F HX  90
LEMOORE        SUNNY     95  50  21 NW7       29.89F HX  92
FRESNO         MOSUNNY   94  49  21 NW3       29.89F HX  90
HANFORD        SUNNY     95  49  20 VRB3      29.90F HX  92
PORTERVILLE    SUNNY     97  51  21 W8        29.90F HX  94
BAKERSFIELD    SUNNY     98  49  18 CALM      29.88F HX  95
$$
CAZ011-012-071-182000-
NORTHERN MOUNTAINS

CITY           SKY/WX    TMP DP  RH WIND       PRES   REMARKS
YREKA          LGT RAIN  80  59  48 W7        30.10S
MOUNT SHASTA   LGT RAIN  78  54  43 CALM      30.13F
ALTURAS        PTSUNNY   70  59  68 W10       30.19F
$$
CAZ011-012-071-182000-
SIERRA NEVADA MTNS

CITY           SKY/WX    TMP DP  RH WIND       PRES   REMARKS
BLUE CANYON    MOSUNNY   80  45  28 VRB5      30.24S
TRUCKEE        MOSUNNY   79  45  29 W14G21    30.26F
TAHOE VLY ARPT MOSUNNY   78  42  27 MISG      30.28S
MAMMOTH LAKES  FAIR      75  43  31 E6        30.35F
$$


 

View Past Reports for Sacramento, CA.

Products Courtesy of NOAA-NWS
NWS Information Parsing Script by Ken True at Saratoga Weather - Script by SE Lincoln Weather.

powered by Cumulus v1.9.3 (1059)
Ambient Weather VWS v14.00
Weather-Display (10.37S-(b58))
Virtual VP software
Top Website Map Copyright © 2007 - 2022 Foresthillweather.com Never base important decisions on this or any weather information obtained from the Internet